Previsão horária em Al Khubar

Hoje, 22 Janeiro, Sexta-feira

Tempo Temperatura Precipitação Vento Pressão Humidade
00:00 +12°C° 0 mm 10 m/s 766 mmHg 43%
01:00 +11°C° 0 mm 10 m/s 766 mmHg 42%
02:00 +11°C° 0 mm 10 m/s 766 mmHg 42%
03:00 +9°C° 0 mm 10 m/s 766 mmHg 41%
04:00 +9°C° 0 mm 10 m/s 766 mmHg 40%
05:00 +8°C° 0 mm 10 m/s 766 mmHg 39%
06:00 +8°C° 0 mm 11 m/s 766 mmHg 38%
07:00 +9°C° 0 mm 11 m/s 767 mmHg 39%
08:00 +11°C° 0 mm 11 m/s 767 mmHg 40%
09:00 +11°C° 0 mm 11 m/s 767 mmHg 41%
10:00 +12°C° 0 mm 11 m/s 767 mmHg 38%
11:00 +14°C° 0 mm 11 m/s 766 mmHg 34%
12:00 +16°C° 0 mm 11 m/s 766 mmHg 30%
13:00 +16°C° 0 mm 11 m/s 766 mmHg 30%
14:00 +16°C° 0 mm 11 m/s 765 mmHg 29%
15:00 +16°C° 0 mm 10 m/s 765 mmHg 29%
16:00 +14°C° 0 mm 10 m/s 765 mmHg 33%
17:00 +13°C° 0 mm 9 m/s 765 mmHg 38%
18:00 +12°C° 0 mm 9 m/s 766 mmHg 42%
19:00 +11°C° 0 mm 8 m/s 766 mmHg 43%
20:00 +11°C° 0 mm 8 m/s 766 mmHg 43%
21:00 +11°C° 0 mm 8 m/s 766 mmHg 43%
22:00 +11°C° 0 mm 8 m/s 766 mmHg 40%
23:00 +10°C° 0 mm 7 m/s 765 mmHg 36%

Amanhã, 23 Janeiro, Sábado

Tempo Temperatura Precipitação Vento Pressão Humidade
00:00 +10°C° 0 mm 7 m/s 765 mmHg 33%
01:00 +10°C° 0 mm 7 m/s 765 mmHg 33%
02:00 +9°C° 0 mm 7 m/s 765 mmHg 33%
03:00 +9°C° 0 mm 7 m/s 765 mmHg 33%
04:00 +9°C° 0 mm 7 m/s 765 mmHg 35%
05:00 +9°C° 0 mm 7 m/s 765 mmHg 37%
06:00 +9°C° 0 mm 7 m/s 766 mmHg 39%
07:00 +10°C° 0 mm 7 m/s 766 mmHg 40%
08:00 +11°C° 0 mm 7 m/s 766 mmHg 41%
09:00 +12°C° 0 mm 7 m/s 767 mmHg 42%
10:00 +14°C° 0 mm 6 m/s 766 mmHg 41%
11:00 +16°C° 0 mm 6 m/s 766 mmHg 41%
12:00 +19°C° 0 mm 5 m/s 766 mmHg 40%
13:00 +19°C° 0 mm 5 m/s 765 mmHg 40%
14:00 +19°C° 0 mm 5 m/s 765 mmHg 41%
15:00 +20°C° 0 mm 5 m/s 764 mmHg 42%
16:00 +19°C° 0 mm 4 m/s 765 mmHg 46%
17:00 +17°C° 0 mm 4 m/s 765 mmHg 51%
18:00 +15°C° 0 mm 4 m/s 765 mmHg 56%
19:00 +15°C° 0 mm 4 m/s 765 mmHg 58%
20:00 +14°C° 0 mm 4 m/s 765 mmHg 59%
21:00 +14°C° 0 mm 4 m/s 766 mmHg 60%
22:00 +13°C° 0 mm 4 m/s 765 mmHg 61%
23:00 +13°C° 0 mm 4 m/s 765 mmHg 62%

Depois de amanhã, 24 Janeiro, Domingo

Tempo Temperatura Precipitação Vento Pressão Humidade
00:00 +13°C° 0 mm 4 m/s 765 mmHg 63%
01:00 +12°C° 0 mm 4 m/s 765 mmHg 61%
02:00 +12°C° 0 mm 4 m/s 765 mmHg 60%
03:00 +12°C° 0 mm 4 m/s 764 mmHg 59%
04:00 +12°C° 0 mm 4 m/s 765 mmHg 53%
05:00 +11°C° 0 mm 4 m/s 765 mmHg 48%
06:00 +11°C° 0 mm 4 m/s 765 mmHg 43%
07:00 +12°C° 0 mm 4 m/s 765 mmHg 40%
08:00 +14°C° 0 mm 4 m/s 766 mmHg 37%
09:00 +15°C° 0 mm 4 m/s 766 mmHg 34%
10:00 +17°C° 0 mm 4 m/s 766 mmHg 32%
11:00 +19°C° 0 mm 4 m/s 765 mmHg 30%
12:00 +20°C° 0 mm 4 m/s 765 mmHg 28%
13:00 +21°C° 0 mm 4 m/s 764 mmHg 28%
14:00 +21°C° 0 mm 4 m/s 764 mmHg 28%
15:00 +22°C° 0 mm 4 m/s 763 mmHg 28%
16:00 +20°C° 0 mm 5 m/s 764 mmHg 35%
17:00 +19°C° 0 mm 5 m/s 764 mmHg 42%
18:00 +16°C° 0 mm 5 m/s 764 mmHg 50%
19:00 +16°C° 0 mm 5 m/s 764 mmHg 52%
20:00 +15°C° 0 mm 5 m/s 765 mmHg 54%
21:00 +15°C° 0 mm 5 m/s 765 mmHg 57%
22:00 +15°C° 0 mm 5 m/s 765 mmHg 56%
23:00 +14°C° 0 mm 5 m/s 764 mmHg 55%

25 Janeiro, Segunda-feira

Tempo Temperatura Precipitação Vento Pressão Humidade
00:00 +14°C° 0 mm 4 m/s 764 mmHg 55%
01:00 +14°C° 0 mm 5 m/s 764 mmHg 53%
02:00 +13°C° 0 mm 5 m/s 764 mmHg 51%
03:00 +13°C° 0 mm 5 m/s 764 mmHg 49%
04:00 +13°C° 0 mm 5 m/s 764 mmHg 48%
05:00 +13°C° 0 mm 5 m/s 764 mmHg 48%
06:00 +12°C° 0 mm 5 m/s 764 mmHg 47%
07:00 +14°C° 0 mm 5 m/s 764 mmHg 44%
08:00 +15°C° 0 mm 5 m/s 765 mmHg 41%
09:00 +16°C° 0 mm 5 m/s 765 mmHg 38%
10:00 +19°C° 0 mm 5 m/s 765 mmHg 35%
11:00 +21°C° 0 mm 5 m/s 764 mmHg 32%
12:00 +22°C° 0 mm 4 m/s 764 mmHg 29%
13:00 +23°C° 0 mm 5 m/s 764 mmHg 30%
14:00 +23°C° 0 mm 5 m/s 763 mmHg 31%
15:00 +23°C° 0 mm 5 m/s 763 mmHg 32%
16:00 +22°C° 0 mm 5 m/s 763 mmHg 38%
17:00 +20°C° 0 mm 5 m/s 764 mmHg 44%
18:00 +19°C° 0 mm 5 m/s 764 mmHg 50%
19:00 +17°C° 0 mm 5 m/s 764 mmHg 53%
20:00 +16°C° 0 mm 5 m/s 764 mmHg 56%
21:00 +17°C° 0 mm 4 m/s 765 mmHg 59%
22:00 +17°C° 0 mm 4 m/s 764 mmHg 60%
23:00 +15°C° 0 mm 4 m/s 764 mmHg 60%

26 Janeiro, Terça-feira

Tempo Temperatura Precipitação Vento Pressão Humidade
00:00 +15°C° 0 mm 4 m/s 764 mmHg 61%
01:00 +15°C° 0 mm 4 m/s 763 mmHg 59%
02:00 +15°C° 0 mm 4 m/s 763 mmHg 56%
03:00 +14°C° 0 mm 4 m/s 763 mmHg 54%
04:00 +14°C° 0 mm 4 m/s 763 mmHg 50%
05:00 +14°C° 0 mm 4 m/s 764 mmHg 47%
06:00 +14°C° 0 mm 4 m/s 764 mmHg 44%
07:00 +17°C° 0 mm 4 m/s 764 mmHg 39%
08:00 +17°C° 0 mm 5 m/s 764 mmHg 33%
09:00 +19°C° 0 mm 5 m/s 765 mmHg 28%
10:00 +21°C° 0 mm 5 m/s 764 mmHg 26%
11:00 +23°C° 0 mm 5 m/s 764 mmHg 24%
12:00 +26°C° 0 mm 5 m/s 764 mmHg 22%
13:00 +26°C° 0 mm 5 m/s 763 mmHg 23%
14:00 +26°C° 0 mm 5 m/s 763 mmHg 24%
15:00 +26°C° 0 mm 6 m/s 763 mmHg 25%
16:00 +23°C° 0 mm 5 m/s 763 mmHg 31%
17:00 +22°C° 0 mm 5 m/s 763 mmHg 38%
18:00 +20°C° 0 mm 5 m/s 763 mmHg 45%
19:00 +19°C° 0 mm 5 m/s 763 mmHg 48%
20:00 +19°C° 0 mm 4 m/s 763 mmHg 51%
21:00 +18°C° 0 mm 4 m/s 764 mmHg 54%
22:00 +18°C° 0 mm 4 m/s 763 mmHg 55%
23:00 +17°C° 0 mm 4 m/s 763 mmHg 56%

27 Janeiro, Quarta-feira

Tempo Temperatura Precipitação Vento Pressão Humidade
00:00 +17°C° 0 mm 3 m/s 763 mmHg 57%
01:00 +17°C° 0 mm 3 m/s 762 mmHg 55%
02:00 +15°C° 0 mm 4 m/s 762 mmHg 54%
03:00 +15°C° 0 mm 4 m/s 762 mmHg 52%
04:00 +15°C° 0 mm 4 m/s 762 mmHg 50%
05:00 +15°C° 0 mm 4 m/s 763 mmHg 48%
06:00 +15°C° 0 mm 4 m/s 763 mmHg 45%
07:00 +17°C° 0 mm 4 m/s 763 mmHg 39%
08:00 +19°C° 0 mm 4 m/s 763 mmHg 33%
09:00 +20°C° 0 mm 4 m/s 764 mmHg 27%
10:00 +22°C° 0 mm 3 m/s 763 mmHg 24%
11:00 +24°C° 0 mm 3 m/s 763 mmHg 22%
12:00 +26°C° 0 mm 2 m/s 762 mmHg 19%
13:00 +26°C° 0 mm 3 m/s 762 mmHg 19%
14:00 +26°C° 0 mm 3 m/s 761 mmHg 20%
15:00 +27°C° 0 mm 3 m/s 761 mmHg 20%
16:00 +24°C° 0 mm 3 m/s 761 mmHg 30%
17:00 +21°C° 0 mm 3 m/s 761 mmHg 39%
18:00 +19°C° 0 mm 3 m/s 761 mmHg 48%
19:00 +19°C° 0 mm 3 m/s 761 mmHg 51%
20:00 +19°C° 0 mm 3 m/s 761 mmHg 54%
21:00 +19°C° 0 mm 2 m/s 762 mmHg 56%
22:00 +18°C° 0 mm 2 m/s 761 mmHg 58%
23:00 +18°C° 0 mm 2 m/s 761 mmHg 59%
Mostrar mais

Necessitamos do seu Consentimento

A Meteoprog e os seus Fornecedores de Serviços podem armazenar e aceder a dados pessoais como cookies, identificadores do dispositivo ou outras tecnologias semelhantes existentes no seu dispositivo e processar estes dados para personalizar conteúdos e anúncios, assim como funcionalidades nas redes sociais e análise de tráfego.

  • Armazenar e/ou aceder a informações no seu dispositivo

    Os cookies, identificadores do dispositivo ou outras informações podem ser armazenados ou acedidos no seu dispositivo, para os fins acima indicados.

  • Anúncios e conteúdos personalizados, medição de anúncios e conteúdos, dados sobre o público-alvo e desenvolvimento de produtos

    Os anúncios e os conteúdos podem ser personalizados com base num perfil. Podem ser adicionados dados adicionais para uma maior personalização dos anúncios e dos conteúdos. A eficácia dos anúncios e dos conteúdos pode ser medida. Podem ser obtidas informações sobre o público que visualizou os anúncios e os conteúdos. Estes dados podem ser usados para desenvolver ou melhorar sistemas, softwares ou a experiência do utilizador.

Ao clicar em "Eu concordo”, permitirá o uso de cookies, identificadores do dispositivo e web beacons mencionados ou outras tecnologias semelhantes. As configurações do navegador do seu dispositivo podem ser alteradas.

Para certos fins, podem ser invocados interesses legítimos ao invés de consentimento. Pode ler mais informação sobre este assunto na nossa Política de Privacidade e Cookies.